Location: Flotzheim
(48.8375°N, 10.8136°E)
Time: 04:26:20
(UTC+00:00)

Cosmos 1939 Rocket - Pass Details

Date: 23 January 2021
Orbit: 531 x 585 km, 97.4° (Epoch: 26 February)

Event Time Altitude Azimuth Distance (km) Brightness Sun altitude
Rises 17:33:52 0° 180° (S) 2,791 6.6 -15.2°
Reaches altitude 10° 17:36:05 10° 187° (S) 1,892 5.8 -15.6°
Maximum altitude 17:40:03 47° 261° (W) 773 4.0 -16.2°
Drops below altitude 10° 17:44:00 10° 336° (NNW) 1,882 5.7 -16.8°
Sets 17:46:13 0° 342° (NNW) 2,776 6.5 -17.2°
